WA5LEE Weather Reports


time (UTC)temp
F
wind
direction
speed
knots
gust
knots
rain 1hr
in
rain 24hr
in
rain mn
in
humidity
%
barometer
mb
20260505200508 83 142 0.9 9.6 0.00 0.00 0.00 74 1008.2
20260505195504 83 236 0.9 7.8 0.00 0.00 0.00 76 1008.5
20260505195005 82 124 0.0 7.8 0.00 0.00 0.00 77 1008.6
20260505194532 82 213 0.0 3.5 0.00 0.00 0.00 78 1008.6
20260505194009 82 169 0.9 3.5 0.00 0.00 0.00 77 1008.7
20260505193502 82 187 0.0 1.7 0.00 0.00 0.00 77 1008.8
20260505193032 82 203 0.0 1.7 0.00 0.00 0.00 77 1008.6
20260505192512 83 312 0.0 4.3 0.00 0.00 0.00 77 1008.6
20260505192003 83 159 0.0 4.3 0.00 0.00 0.00 75 1008.7
20260505191518 82 223 0.0 1.7 0.00 0.00 0.00 76 1008.7
20260505191013 82 125 0.0 6.1 0.00 0.00 0.00 76 1008.7
20260505190508 82 246 1.7 6.1 0.00 0.00 0.00 76 1008.8
20260505190013 82 164 0.9 3.5 0.00 0.00 0.00 78 1008.8
20260505185509 81 161 0.9 3.5 0.00 0.00 0.00 78 1008.9
20260505185008 81 178 0.0 3.5 0.00 0.00 0.00 78 1008.9
20260505184527 81 201 0.9 3.5 0.00 0.00 0.00 77 1009.0
20260505184007 81 203 0.9 7.0 0.00 0.00 0.00 78 1009.0
20260505183506 81 292 0.9 7.0 0.00 0.00 0.00 79 1009.0
20260505183028 80 183 0.9 7.0 0.00 0.00 0.00 79 1009.0
20260505182009 80 208 0.0 3.5 0.00 0.00 0.00 80 1009.1
20260505181522 80 17 0.0 1.7 0.00 0.00 0.00 79 1009.2
20260505181012 80 134 0.0 1.7 0.00 0.00 0.00 80 1009.1
20260505180507 80 186 0.0 1.7 0.00 0.00 0.00 80 1009.1
20260505180032 80 306 0.0 3.5 0.00 0.00 0.00 80 1009.1
20260505175508 80 167 0.0 3.5 0.00 0.00 0.00 81 1009.2
20260505175005 79 220 0.9 1.7 0.00 0.00 0.00 81 1009.2
20260505174531 79 164 0.0 3.5 0.00 0.00 0.00 81 1009.3
20260505174010 79 164 0.0 3.5 0.00 0.00 0.00 81 1009.4
20260505173510 79 155 0.9 3.5 0.00 0.00 0.00 82 1009.5
20260505173016 79 175 0.0 3.5 0.00 0.00 0.00 83 1009.5
20260505172506 78 148 0.0 2.6 0.00 0.00 0.00 83 1009.5
20260505172008 78 192 0.0 4.3 0.00 0.00 0.00 84 1009.5
20260505171514 78 190 0.0 4.3 0.00 0.00 0.00 83 1009.6
20260505170508 78 157 0.0 1.7 0.00 0.00 0.00 82 1009.7
20260505170028 79 192 0.0 2.6 0.00 0.00 0.00 82 1009.6
20260505165504 79 121 0.0 2.6 0.00 0.00 0.00 82 1009.7
20260505165007 79 246 0.0 1.7 0.00 0.00 0.00 82 1009.7
20260505164524 79 181 0.0 2.6 0.00 0.00 0.00 82 1009.7
20260505164010 78 173 0.0 2.6 0.00 0.00 0.00 82 1009.8
20260505163506 78 37 0.0 3.5 0.00 0.00 0.00 82 1009.7
20260505163024 78 195 0.0 4.3 0.00 0.00 0.00 82 1009.7
20260505162509 78 215 0.9 4.3 0.00 0.00 0.00 83 1009.7
20260505162007 78 215 0.0 1.7 0.00 0.00 0.00 83 1009.6
20260505161522 78 247 0.0 2.6 0.00 0.00 0.00 83 1009.6
20260505161008 77 196 0.0 7.0 0.00 0.00 0.00 83 1009.6
20260505153031 77 126 0.9 1.7 0.00 0.00 0.00 83 1009.4
20260505152504 77 212 0.0 1.7 0.00 0.00 0.00 83 1009.4
20260505152010 77 238 0.0 4.3 0.00 0.00 0.00 83 1009.4
20260505151529 77 219 0.9 5.2 0.00 0.00 0.00 83 1009.3
20260505151006 76 196 0.0 5.2 0.00 0.00 0.00 83 1009.3
20260505150507 76 221 0.0 2.6 0.00 0.00 0.00 83 1009.3
20260505140511 75 173 0.0 4.3 0.00 0.00 0.00 85 1009.1
20260505125011 0 0.0 0.0 0.00 0.00 0.00 1008.8
20260505124526 0 0.0 0.0 0.00 0.00 0.00 1008.4
20260505124011 0 0.0 0.0 0.00 0.00 0.00 1008.4
20260505123508 0 0.0 0.0 0.00 0.00 0.00 1008.7
20260505123041 0 0.0 0.0 0.00 0.00 0.00 1008.9
20260505122509 0 0.0 0.0 0.00 0.00 0.00 1008.8
20260505122013 0 0.0 0.0 0.00 0.00 0.00 1008.9
20260505121528 0 0.0 0.0 0.00 0.00 0.00 1008.9
20260505121010 0 0.0 0.0 0.00 0.00 0.00 1008.6
20260505120029 0 0.0 0.0 0.00 0.00 0.00 1008.5
20260505115510 0 0.0 0.0 0.00 0.00 0.00 1008.5
20260505115007 0 0.0 0.0 0.00 0.00 0.00 1008.3
20260505114526 0 0.0 0.0 0.00 0.00 0.00 1008.1
20260505114008 0 0.0 0.0 0.00 0.00 0.00 1008.3
20260505113510 0 0.0 0.0 0.00 0.00 0.00 1008.6
20260505113034 0 0.0 0.0 0.00 0.00 0.00 1008.7
20260505112509 0 0.0 0.0 0.00 0.00 0.00 1008.6
20260505112015 0 0.0 0.0 0.00 0.00 0.00 1008.6
20260505111542 0 0.0 0.0 0.00 0.00 0.00 1008.4
20260505111013 0 0.0 0.0 0.00 0.00 0.00 1008.5
20260505110513 0 0.0 0.0 0.00 0.00 0.00 1008.3
20260505102011 0 0.0 0.0 0.00 0.00 0.00 1008.5
20260505100028 0 0.0 0.0 0.00 0.00 0.00 1008.6
20260505092510 0 0.0 0.0 0.00 0.00 0.00 1008.8
20260505091533 0 0.0 0.0 0.00 0.00 0.00 1008.9
20260505091011 0 0.0 0.0 0.00 0.00 0.00 1008.8
20260505090511 0 0.0 0.0 0.00 0.00 0.00 1008.8
20260505090033 0 219 0.0 1.7 0.00 0.00 0.00 1008.8
20260505085507 70 219 0.0 2.6 0.00 0.00 0.00 87 1008.8
20260505085007 70 190 0.0 2.6 0.00 0.00 0.00 87 1008.8
20260505084006 70 206 0.0 1.7 0.00 0.00 0.00 87 1008.8
20260505083508 70 199 0.0 1.7 0.00 0.00 0.00 86 1008.8
20260505083015 70 199 0.0 1.7 0.00 0.00 0.00 86 1009.0
20260505082508 70 192 0.0 1.7 0.00 0.00 0.00 86 1009.1
20260505082012 70 211 0.0 1.7 0.00 0.00 0.00 86 1009.1
20260505081509 70 221 0.0 1.7 0.00 0.00 0.00 86 1009.2
20260505081009 70 232 0.0 0.9 0.00 0.00 0.00 86 1009.1
20260505080510 70 232 0.0 0.9 0.00 0.00 0.00 86 1009.2
20260505080033 70 259 0.0 0.0 0.00 0.00 0.00 86 1009.3
20260505075503 70 209 0.0 0.0 0.00 0.00 0.00 86 1009.3
20260505075012 70 209 0.0 1.7 0.00 0.00 0.00 86 1009.3
20260505074522 70 209 0.0 1.7 0.00 0.00 0.00 85 1009.3
20260505074004 70 209 0.0 0.0 0.00 0.00 0.00 85 1009.4
20260505073022 70 209 0.0 0.0 0.00 0.00 0.00 85 1009.4
20260505072510 70 209 0.0 0.0 0.00 0.00 0.00 85 1009.4
20260505072004 70 209 0.0 0.9 0.00 0.00 0.00 85 1009.6
20260505071519 70 209 0.0 1.7 0.00 0.00 0.00 85 1009.6
20260505071011 70 209 0.0 1.7 0.00 0.00 0.00 85 1009.7
20260505070508 70 207 0.0 1.7 0.00 0.00 0.00 85 1009.7
20260505070017 70 171 0.0 1.7 0.00 0.00 0.00 84 1009.7
20260505065507 70 189 0.0 1.7 0.00 0.00 0.00 84 1009.8
20260505065007 70 228 0.0 0.9 0.00 0.00 0.00 84 1009.9
20260505064512 70 228 0.0 1.7 0.00 0.00 0.00 84 1009.9
20260505064009 70 175 0.0 1.7 0.00 0.00 0.00 84 1009.8
20260505063509 70 185 0.0 1.7 0.00 0.00 0.00 84 1009.9
20260505062012 70 138 0.0 1.7 0.00 0.00 0.00 84 1010.0
20260505061536 70 219 0.0 0.9 0.00 0.00 0.00 84 1010.1
20260505061007 70 194 0.0 1.7 0.00 0.00 0.00 84 1010.2
20260505060510 70 200 0.0 1.7 0.00 0.00 0.00 83 1010.2
20260505060027 70 198 0.0 1.7 0.00 0.00 0.00 83 1010.2
20260505055512 70 198 0.0 1.7 0.00 0.00 0.00 83 1010.2
20260505055007 70 197 0.0 1.7 0.00 0.00 0.00 83 1010.2
20260505054521 70 164 0.0 1.7 0.00 0.00 0.00 83 1010.2
20260505054017 70 102 0.0 1.7 0.00 0.00 0.00 82 1010.3
20260505053509 70 198 0.0 0.0 0.00 0.00 0.00 82 1010.4
20260505053018 70 198 0.0 1.7 0.00 0.00 0.00 82 1010.4
20260505052511 70 198 0.0 1.7 0.00 0.00 0.00 82 1010.6
20260505052010 71 212 0.0 0.9 0.00 0.00 0.00 82 1010.6
20260505051009 71 215 0.0 3.5 0.00 0.00 0.00 81 1010.7
20260505050513 71 181 0.9 3.5 0.00 0.00 0.00 81 1010.7
20260505041530 72 204 0.0 2.6 0.00 0.00 0.00 78 1010.7
20260505041009 72 68 0.0 1.7 0.00 0.00 0.00 79 1010.6
20260505040508 72 180 0.0 1.7 0.00 0.00 0.00 78 1010.4
20260505040024 72 202 0.0 1.7 0.00 0.00 0.00 78 1010.8
20260505035507 72 109 0.0 1.7 0.00 0.00 0.00 78 1010.7
20260505035003 72 111 0.9 1.7 0.00 0.00 0.00 78 1010.7
20260505033515 73 224 0.0 1.7 0.00 0.00 0.00 77 1010.9
20260505033019 73 135 0.0 1.7 0.00 0.00 0.00 77 1011.0
20260505032507 73 146 0.0 1.7 0.00 0.00 0.00 77 1011.0
20260505032014 73 213 0.0 1.7 0.00 0.00 0.00 77 1011.0
20260505031515 73 196 0.0 1.7 0.00 0.00 0.00 77 1011.0
20260505031008 73 256 0.0 1.7 0.00 0.00 0.00 77 1010.9
20260505030509 73 214 0.0 2.6 0.00 0.00 0.00 76 1011.0
20260505030028 73 105 0.0 2.6 0.00 0.00 0.00 76 1011.0
20260505025508 73 110 0.0 0.9 0.00 0.00 0.00 76 1010.8
20260505025010 73 208 0.0 1.7 0.00 0.00 0.00 76 1010.7
20260505024537 74 207 0.0 1.7 0.00 0.00 0.00 75 1010.6
20260505024009 74 150 0.0 1.7 0.00 0.00 0.00 75 1010.7
20260505023507 74 201 0.0 1.7 0.00 0.00 0.00 75 1010.8
20260505022512 74 169 0.0 1.7 0.00 0.00 0.00 75 1010.8
20260505022006 74 200 0.0 1.7 0.00 0.00 0.00 74 1010.7
20260505021523 74 195 0.0 1.7 0.00 0.00 0.00 74 1010.7
20260505021007 74 169 0.0 1.7 0.00 0.00 0.00 75 1010.7
20260505020508 74 163 0.0 1.7 0.00 0.00 0.00 74 1010.7
20260505020020 74 174 0.0 1.7 0.00 0.00 0.00 74 1010.6
20260505015511 74 172 0.0 2.6 0.00 0.00 0.00 73 1010.6
20260505015012 74 172 0.9 2.6 0.00 0.00 0.00 73 1010.5
20260505014519 74 186 0.0 1.7 0.00 0.00 0.00 74 1010.4
20260505013512 74 208 0.0 1.7 0.00 0.00 0.00 74 1010.3
20260505013029 74 115 0.0 1.7 0.00 0.00 0.00 74 1010.3
20260505012505 74 155 0.0 1.7 0.00 0.00 0.00 75 1010.3
20260505012015 74 217 0.0 1.7 0.00 0.00 0.00 74 1010.1
20260505011531 74 184 0.0 1.7 0.00 0.00 0.00 74 1010.1
20260505011006 75 200 0.0 2.6 0.00 0.00 0.00 73 1010.3
20260505010506 75 167 0.0 2.6 0.00 0.00 0.00 72 1010.3
20260505010026 75 210 0.0 1.7 0.00 0.00 0.00 72 1010.3
20260505005509 75 327 0.0 0.9 0.00 0.00 0.00 72 1010.3
20260505005007 76 234 0.0 0.9 0.00 0.00 0.00 71 1010.3
20260505004526 76 215 0.0 1.7 0.00 0.00 0.00 70 1010.2
20260505004014 76 200 0.0 1.7 0.00 0.00 0.00 71 1010.1
20260505003511 76 195 0.0 2.6 0.00 0.00 0.00 70 1010.2
20260505003024 77 144 0.0 2.6 0.00 0.00 0.00 69 1010.1
20260505002513 77 126 0.0 4.3 0.00 0.00 0.00 68 1010.1
20260505002011 77 202 0.0 4.3 0.00 0.00 0.00 68 1010.1
20260505001520 77 200 0.9 4.3 0.00 0.00 0.00 68 1010.2
20260505001012 77 132 0.0 5.2 0.00 0.00 0.00 67 1010.2
20260505000509 77 229 0.9 5.2 0.00 0.00 0.00 67 1010.3
20260505000032 77 161 0.9 3.5 0.00 0.00 0.00 67 1010.3
20260504235510 78 270 0.0 2.6 0.00 0.00 0.00 68 1010.4
20260504235009 78 186 0.9 2.6 0.00 0.00 0.00 67 1010.3
20260504234524 78 229 0.0 2.6 0.00 0.00 0.00 66 1010.3
20260504234008 78 112 0.0 1.7 0.00 0.00 0.00 66 1010.2
20260504233506 78 104 0.9 3.5 0.00 0.00 0.00 66 1010.4
20260504233017 78 181 0.0 3.5 0.00 0.00 0.00 66 1010.3
20260504232507 78 202 0.9 4.3 0.00 0.00 0.00 65 1010.4
20260504231531 79 281 0.0 3.5 0.00 0.00 0.00 65 1010.6
20260504231010 79 141 0.0 3.5 0.00 0.00 0.00 65 1010.6
20260504230509 79 216 0.9 2.6 0.00 0.00 0.00 63 1010.6
20260504230024 79 205 0.0 3.5 0.00 0.00 0.00 64 1010.7
20260504225007 80 208 0.9 7.0 0.00 0.00 0.00 62 1010.7
20260504224526 80 71 0.0 4.3 0.00 0.00 0.00 63 1010.7
20260504224014 80 190 0.9 4.3 0.00 0.00 0.00 61 1010.8
20260504223504 80 211 0.9 2.6 0.00 0.00 0.00 62 1010.9
20260504223021 80 245 0.0 5.2 0.00 0.00 0.00 62 1010.7
20260504222508 80 222 0.0 5.2 0.00 0.00 0.00 62 1010.8
20260504222006 80 153 0.9 5.2 0.00 0.00 0.00 59 1010.9
20260504220020 82 104 0.0 3.5 0.00 0.00 0.00 58 1011.1
20260504215509 82 220 0.0 2.6 0.00 0.00 0.00 56 1011.1
20260504215009 82 201 0.0 5.2 0.00 0.00 0.00 59 1011.1
20260504214526 83 149 0.0 5.2 0.00 0.00 0.00 56 1011.2
20260504214011 83 207 0.0 3.5 0.00 0.00 0.00 53 1011.3
20260504213507 83 207 0.0 3.5 0.00 0.00 0.00 56 1011.3
20260504213028 84 187 0.0 3.5 0.00 0.00 0.00 55 1011.3
20260504212509 84 252 0.0 3.5 0.00 0.00 0.00 53 1011.4
20260504211528 85 240 0.0 2.6 0.00 0.00 0.00 52 1011.5
20260504211009 85 242 0.0 2.6 0.00 0.00 0.00 52 1011.5
20260504210507 85 245 0.0 3.5 0.00 0.00 0.00 54 1011.7
20260504205010 85 180 1.7 4.3 0.00 0.00 0.00 51 1011.8
20260504204521 85 149 0.0 1.7 0.00 0.00 0.00 53 1012.0
20260504204011 84 230 0.9 2.6 0.00 0.00 0.00 56 1012.0
20260504203513 84 127 0.0 2.6 0.00 0.00 0.00 55 1012.2
20260504203025 83 266 0.9 2.6 0.00 0.00 0.00 55 1012.2
20260504202513 83 94 0.0 3.5 0.00 0.00 0.00 56 1012.1
20260504202011 83 101 0.9 4.3 0.00 0.00 0.00 56 1012.5
20260504201519 83 108 0.0 4.3 0.00 0.00 0.00 54 1012.6